RH
31 31 32 32 32 32 29 26 22 18 15 14 14 14 15 15 15 15 15 15 16 16 16 16 16 15 15 15 15 14 14 14 13 13 12 12 12 11 11 11 11 10 10 10 10 10 9 9 9 9 8 8
30 31 30 29 29 27 23 18 16 15 15 15 15 15 16 16 16 15 16 17 17 17 17 16 16 16 16 15 15 14 14 14 13 13 12 12 12 12 12 11 11 11 10 10 10 10 9 9 9 9 8 8
26 25 23 21 21 20 18 16 16 16 16 16 16 16 16 16 16 16 16 18 18 18 17 17 16 17 16 16 16 15 14 14 14 14 13 13 12 12 12 12 11 11 11 10 10 10 9 9 9 9 8 8
21 20 18 18 18 17 17 17 17 17 17 17 17 17 17 17 17 17 18 18 18 18 18 17 17 17 17 17 17 16 15 15 15 14 14 13 13 13 12 12 12 12 11 11 10 10 10 9 9 9 8 8
17 17 17 17 18 18 18 18 18 19 18 18 18 18 18 18 18 18 19 20 20 19 19 19 20 19 19 18 18 17 16 16 15 15 14 14 14 13 13 13 12 12 12 11 11 10 10 9 9 9 8 8
19 18 19 20 20 21 21 21 21 21 20 20 20 19 19 19 19 19 20 21 21 21 21 21 22 21 20 20 19 18 17 16 16 15 15 15 14 14 13 13 12 12 12 11 11 10 10 10 10 9 9 8
24 22 22 23 23 23 24 24 23 23 22 22 22 22 21 21 21 20 21 21 22 22 23 23 23 22 22 21 19 19 18 17 16 16 16 16 15 15 14 13 13 13 12 12 11 11 11 11 10 10 10 9
28 26 24 24 24 25 26 26 26 25 25 25 26 25 25 24 23 23 23 23 24 25 25 25 25 24 23 22 21 20 19 18 18 17 17 17 17 16 15 15 14 14 13 13 13 13 12 12 11 11 11 10
35 33 32 31 31 30 30 30 29 29 29 29 29 29 28 26 26 25 25 25 26 26 26 27 27 27 25 24 22 20 20 20 20 19 18 18 18 18 17 17 16 16 15 15 15 14 14 13 13 12 12 11
45 44 44 44 44 43 41 40 39 37 36 34 33 31 29 28 28 28 27 27 27 28 28 29 29 28 27 24 21 20 20 21 21 21 20 19 20 20 20 19 19 18 18 17 17 16 15 15 14 14 13 13
48 49 50 51 52 52 52 51 50 48 47 44 41 38 36 34 31 30 30 29 29 29 29 29 29 28 26 24 23 22 21 21 22 22 22 22 22 22 21 21 21 20 20 20 19 18 17 17 16 15 15 14
47 49 50 51 52 53 54 55 54 54 52 51 49 48 45 42 39 37 36 34 33 31 30 29 29 28 28 27 27 26 25 24 23 23 23 24 24 23 23 22 22 22 22 21 21 20 19 18 18 17 16 16
47 48 48 49 50 50 52 52 53 53 53 52 51 50 48 46 44 43 42 41 40 38 36 35 35 34 33 32 31 30 30 28 27 26 26 26 26 26 25 24 24 23 23 22 22 21 21 20 20 19 19 18
48 48 47 47 46 46 47 48 49 49 49 49 49 48 47 47 47 47 46 46 46 45 44 44 43 42 41 40 38 37 35 34 32 31 29 28 28 28 27 26 26 25 25 24 23 23 22 22 22 21 21 21
49 49 48 47 45 44 44 44 44 44 44 43 43 44 45 46 47 47 47 47 48 48 48 47 47 47 47 46 45 44 42 41 39 37 35 33 31 31 30 29 28 27 27 26 26 25 24 24 24 24 23 23
50 50 49 48 46 44 43 43 42 41 41 41 42 43 44 44 45 46 46 46 46 47 47 47 47 48 48 49 49 49 48 46 44 43 41 39 36 34 33 33 32 31 29 28 28 27 27 26 25 25 25 25
52 52 51 50 49 47 46 45 44 44 44 44 44 44 45 46 46 45 45 45 45 45 45 46 47 48 48 49 50 50 50 49 48 46 44 42 41 38 36 35 35 34 32 31 30 30 29 28 28 28 27 27
55 54 54 53 51 50 49 48 48 48 48 49 49 49 49 49 48 48 47 46 46 47 47 48 48 49 50 50 51 51 51 50 50 48 47 45 43 41 40 38 37 36 35 34 33 32 32 31 30 29 29 28
58 59 58 57 56 56 55 55 55 55 55 55 54 54 54 53 53 53 53 52 52 53 52 53 53 53 53 53 53 53 53 52 51 50 49 48 46 45 43 41 40 38 37 36 36 35 34 33 32 31 31 30
62 64 65 65 65 64 64 63 62 62 61 61 61 61 60 60 60 60 60 60 60 60 60 59 59 59 58 58 58 57 56 55 54 52 51 50 49 47 46 44 43 41 40 38 38 37 36 35 34 33 32 32
63 67 69 71 72 71 70 70 69 69 69 68 68 67 67 67 67 67 67 67 66 66 66 65 64 64 63 62 62 61 60 58 57 54 53 52 51 49 48 47 46 44 43 41 40 39 38 37 36 35 34 34
55 60 65 69 72 74 75 75 75 74 74 74 74 73 72 72 71 71 70 70 69 68 68 67 66 66 65 64 63 62 61 60 58 56 54 54 53 52 50 49 49 47 46 44 43 41 40 39 37 37 36 36
44 47 51 56 61 65 70 74 76 77 78 78 77 77 76 75 74 73 72 71 71 70 69 68 67 66 65 64 63 62 60 59 57 56 54 53 54 55 53 51 51 50 49 48 47 45 44 42 41 40 39 39
40 41 42 44 46 49 53 58 64 69 74 78 79 80 79 78 77 76 75 73 73 72 70 69 68 67 66 65 63 61 60 58 57 56 55 54 53 55 55 54 53 52 52 51 51 49 48 46 45 45 44 42
37 38 39 39 40 40 41 43 46 50 55 62 68 73 76 76 75 75 74 73 72 71 71 70 69 68 67 66 64 63 61 59 58 56 55 54 54 54 55 56 56 54 53 52 53 53 52 52 51 49 48 46
35 35 36 37 39 39 39 39 39 39 41 43 47 53 59 65 68 69 69 68 68 68 68 67 67 66 66 66 66 64 62 61 59 58 56 55 55 54 54 55 57 57 56 54 54 53 52 53 55 54 53 52
34 34 34 36 39 40 39 38 36 35 34 32 33 35 39 45 52 57 60 62 63 63 63 62 63 63 64 64 65 64 63 62 61 60 59 58 56 56 55 56 57 59 59 58 56 55 54 53 55 57 57 56
35 34 33 33 36 37 37 35 32 29 26 24 24 24 25 27 31 36 42 48 53 56 57 58 59 60 60 61 62 62 62 61 62 61 61 61 60 58 58 58 59 60 62 61 58 57 56 56 56 59 61 61
30 29 28 28 30 32 33 32 30 26 22 21 20 20 20 20 21 22 25 29 35 40 44 48 51 53 56 58 59 60 60 60 61 61 61 61 61 61 60 60 60 61 64 64 62 60 58 59 63 64 63 63
28 27 27 27 29 31 32 32 29 25 22 22 22 21 21 20 20 20 20 20 22 24 28 32 36 40 44 48 51 53 55 56 58 59 60 60 60 60 61 60 59 61 63 65 65 64 62 63 69 69 65 65
29 28 27 27 29 31 31 29 26 24 24 24 24 25 24 24 23 23 22 22 21 21 21 22 24 27 30 34 38 42 45 48 50 52 54 56 57 58 59 59 59 59 61 63 65 65 64 64 66 66 65 67